Location: Unspecified
(64.9000°N, 0.0000°E)
Time: 09:51:14
(UTC+00:00)

A-11 Canister half - Pass Details

Date: 24 June 2019
Orbit: 1526 x 1683 km, 47.3° (Epoch: 16 August)

Event Time Altitude Azimuth Distance (km) Brightness Sun altitude
Rises 10:17:31 0° 270° (W) 4,688 11.3 45.2°
Reaches altitude 10° 10:22:44 10° 246° (WSW) 3,696 11.0 45.5°
Maximum altitude 10:26:31 13° 222° (SW) 3,445 11.2 45.7°
Drops below altitude 10° 10:30:18 10° 197° (SSW) 3,701 11.6 45.9°
Sets 10:35:34 0° 173° (S) 4,698 12.2 46.2°
